Flag for Germany Weather past 2 weeks in Lingen (Ems), Lower Saxony, Germany

Now
77 °F

Warm.


Feels Like: 79 °F
Forecast: 60 / 73 °F
Wind: 6 mph from North

Location: Meppen

Current Time: Jul 29, 2014 at 9:20:30 PM

Latest Report: Jul 29, 2014 at 7:00 PM


Visibility: 5 mi

Pressure: 29.82 "Hg

Humidity: 63%

Dew point: 63 °F

Location of Lingen (Ems)Location

Historic Weather in Lingen (Ems) — Graph

°F

Lingen (Ems) temperature yesterday

Maximum temperature yesterday: 78 °F (at 6:00 PM)
Minimum temperature yesterday: 59 °F (at 4:00 AM)
Average temperature yesterday: 68 °F

Past Weeks' High & Low Weather Summary

 TemperatureHumidityPressure
High93 °F (Jul 19, 4:00 PM)95% (Jul 16, 7:00 AM)30.20 "Hg (Jul 16, 7:00 AM)
Low53 °F (Jul 16, 6:00 AM)22% (Jul 19, 3:00 PM)29.76 "Hg (Jul 20, 6:00 PM)
Average70 °F72%30.00 "Hg
* Reported Jul 14 7:00 PM — Jul 29 7:00 PM, Lingen (Ems), Weather by CustomWeather, © 2014

Note: Actual official high and low records may vary slightly from our data, if they occured in-between our weather recording intervals... More about our weather records

Advertising

Lingen (Ems) weather history for previous 24 hours

 ConditionsComfort  
Time TempWeatherWind HumidityBarometerVisibility
7:00 PM
Jul 29
77 °FWarm.6 mph63%29.82 "Hg5 mi
6:00 PM79 °FWarm.7 mph61%29.81 "Hg5 mi
4:00 PM82 °FScattered clouds.3 mph45%29.82 "Hg22 mi
3:00 PM83 °FPassing clouds.5 mph45%29.83 "Hg22 mi
2:00 PMN/APassing clouds.7 mphN/AN/A4 mi
1:00 PM79 °FPassing clouds.2 mph50%29.86 "Hg19 mi
12:00 PM78 °FPassing clouds.3 mph55%29.87 "Hg16 mi
10:00 AM74 °FPassing clouds.5 mph67%29.88 "Hg9 mi
9:00 AM70 °FPassing clouds.3 mph82%29.88 "Hg7 mi
8:00 AM67 °FFog.3 mph91%29.87 "Hg3 mi
7:00 AM65 °FFog.3 mph93%29.87 "Hg2 mi
6:00 AM65 °FFog.3 mph93%29.87 "Hg2 mi
4:00 AM65 °FMild.5 mph92%29.88 "Hg3 mi
3:00 AM65 °FMild.5 mph90%29.88 "Hg4 mi
1:00 AM67 °FMild.2 mph87%29.90 "Hg4 mi
12:00 AM68 °FMild.3 mph84%29.89 "Hg5 mi
10:00 PM
Jul 28
N/APassing clouds.N/AN/AN/A2 mi
9:00 PM73 °FMild.5 mph73%29.88 "Hg6 mi
Weather by CustomWeather, © 2014

See weather overviewHow to use our weather pages